Hourly Data Report for October 06, 2017

All times are specified in Local Standard Time (LST). Add 1 hour to adjust for Daylight Saving Time where and when it is observed.

PORTAGE SOUTHPORT
MANITOBA

49°54'11.300" N
98°17'02.900" W
272.70 m
5012324
71851
WPG

Download Data

Hourly Data (October 2017)
Hourly Data Report for October 6, 2017
Temp Definition
°C
Dew Point Temp Definition
°C
Rel Hum Definition
%
Wind Dir Definition
10's deg

Wind Spd Definition
km/h
Visibility Definition
km
Stn Press Definition
kPa
Hmdx Definition


Wind Chill Definition


Weather Definition


TIME
00:00 6.3 1.3 70 21 14   98.46     LegendNANA
01:00 5.6 1.0 72 21 13   98.42     LegendNANA
02:00 5.2 1.1 75 21 14   98.39     LegendNANA
03:00 5.3 1.1 74 21 13   98.32     LegendNANA
04:00 4.8 1.0 76 21 13   98.26     LegendNANA
05:00 4.7 0.8 76 21 14   98.21     LegendNANA
06:00 4.9 1.0 76 21 14   98.17     LegendNANA
07:00 5.1 1.0 75 21 14   98.11     LegendNANA
08:00 6.1 1.2 71 21 12   98.05     LegendNANA
09:00 9.8 2.7 61 21 13   97.95     LegendNANA
10:00 12.9 2.5 49 21 11   97.90     LegendNANA
11:00 15.1 2.0 41 22 15   97.84     LegendNANA
12:00 16.2 2.2 39 23 13   97.74     LegendNANA
13:00 16.9 1.2 35 21 15   97.56     LegendNANA
14:00 17.8 1.0 32 22 16   97.45     LegendNANA
15:00 18.3 1.3 32 22 15   97.31     LegendNANA
16:00 18.5 2.1 33 21 18   97.19     LegendNANA
17:00 17.7 2.0 35 21 14   97.12     LegendNANA
18:00 15.0 3.8 47 18 7   97.07     LegendNANA
19:00 13.0 4.2 55 17 7   96.99     LegendNANA
20:00 11.8 4.4 61 17 9   96.89     LegendNANA
21:00 12.1 4.2 58 18 13   96.80     LegendNANA
22:00 10.5 4.3 66 17 14   96.69     LegendNANA
23:00 10.0 4.3 68 17 14   96.60     LegendNANA

Notes on Data Quality.

Legend

  • E = Estimated
  • M = Missing
  • NA = Not Available
  • ‡ = Partner data that is not subject to review by the National Climate Archives
Date modified: